Tracking 23731 objects as of 26-Sep-2021
HD Live streaming from Space Station
objects crossing your sky now

INSAT 2A

Track INSAT 2A now!
INSAT 2A is classified as:


NORAD ID: 22027
Int'l Code: 1992-041A
Perigee: 35,799.2 km
Apogee: 35,836.1 km
Inclination: 14.8 °
Period: 1,437.3 minutes
Semi major axis: 42188 km
RCS: 1.9952 m2 (large)
Launch date: July 9, 1992
Source: India (IND)
Launch site: FRENCH GUIANA (FRGUI)
aabbcc
Your satellite tracking list
Your tracking list is empty




NASA's NSSDC Master Catalog

Two Line Element Set (TLE):
1 22027U 92041A   21269.09840767 -.00000302  00000-0  00000+0 0  9995
2 22027  14.8225   5.3846 0004373 237.1223 108.8508  1.00186646106751
Source of the keplerian elements: AFSPC